| time (UTC) | temp F | wind direction | speed MPH | gust MPH | rain 1hr in | rain 24hr in | rain mn in | humidity % | barometer mb |
| 20260905161106 | 74 | 245 | 6.0 | 13.0 | 0.00 | 0.08 | 0.08 | 38 | 1018.3 |
| 20260905155053 | 75 | 250 | 6.0 | 13.0 | 0.00 | 0.08 | 0.08 | 38 | 1018.1 |
| 20260905154042 | 75 | 232 | 6.0 | 9.0 | 0.00 | 0.08 | 0.08 | 38 | 1018.0 |
| 20260905153038 | 75 | 238 | 5.0 | 11.0 | 0.00 | 0.08 | 0.08 | 37 | 1018.0 |
| 20260905152029 | 75 | 211 | 6.0 | 11.0 | 0.00 | 0.08 | 0.08 | 38 | 1018.0 |
| 20260905151025 | 76 | 246 | 6.0 | 14.0 | 0.00 | 0.08 | 0.08 | 37 | 1017.9 |
| 20260905150016 | 75 | 253 | 7.0 | 14.0 | 0.00 | 0.08 | 0.08 | 38 | 1017.8 |
| 20260905145113 | 76 | 254 | 8.0 | 14.0 | 0.00 | 0.08 | 0.08 | 37 | 1017.8 |
| 20260905144107 | 75 | 217 | 7.0 | 13.0 | 0.00 | 0.08 | 0.08 | 38 | 1017.7 |
| 20260905143102 | 75 | 266 | 8.0 | 18.0 | 0.00 | 0.08 | 0.08 | 37 | 1017.7 |
| 20260905142055 | 76 | 246 | 6.0 | 14.0 | 0.00 | 0.08 | 0.08 | 37 | 1017.6 |
| 20260905141049 | 75 | 244 | 8.0 | 17.0 | 0.00 | 0.08 | 0.08 | 36 | 1017.8 |
| 20260905140039 | 76 | 250 | 8.0 | 16.0 | 0.00 | 0.08 | 0.08 | 37 | 1017.7 |
| 20260905135032 | 75 | 234 | 8.0 | 14.0 | 0.00 | 0.08 | 0.08 | 36 | 1017.6 |
| 20260905134026 | 76 | 232 | 8.0 | 15.0 | 0.00 | 0.08 | 0.08 | 38 | 1017.7 |
| 20260905133019 | 75 | 259 | 6.0 | 9.0 | 0.00 | 0.08 | 0.08 | 40 | 1017.5 |
| 20260905132115 | 75 | 234 | 6.0 | 11.0 | 0.00 | 0.08 | 0.08 | 42 | 1017.5 |
| 20260905131105 | 75 | 231 | 7.0 | 11.0 | 0.00 | 0.08 | 0.08 | 42 | 1017.7 |
| 20260905125051 | 74 | 238 | 6.0 | 14.0 | 0.00 | 0.08 | 0.08 | 44 | 1017.6 |
| 20260905124042 | 74 | 248 | 5.0 | 13.0 | 0.00 | 0.08 | 0.08 | 42 | 1017.6 |
| 20260905123039 | 74 | 245 | 6.0 | 11.0 | 0.00 | 0.08 | 0.08 | 45 | 1017.6 |
| 20260905122027 | 75 | 247 | 6.0 | 11.0 | 0.00 | 0.08 | 0.08 | 45 | 1017.6 |
| 20260905121018 | 75 | 231 | 6.0 | 15.0 | 0.00 | 0.08 | 0.08 | 46 | 1017.5 |
| 20260905120016 | 72 | 256 | 9.0 | 15.0 | 0.00 | 0.08 | 0.08 | 49 | 1017.5 |
| 20260905115106 | 72 | 225 | 6.0 | 11.0 | 0.00 | 0.08 | 0.08 | 50 | 1017.5 |
| 20260905114102 | 73 | 228 | 6.0 | 11.0 | 0.00 | 0.08 | 0.08 | 50 | 1017.3 |
| 20260905113052 | 72 | 228 | 5.0 | 13.0 | 0.00 | 0.08 | 0.08 | 52 | 1017.5 |
| 20260905112042 | 72 | 242 | 6.0 | 11.0 | 0.00 | 0.08 | 0.08 | 53 | 1017.5 |
| 20260905111039 | 73 | 172 | 7.0 | 11.0 | 0.00 | 0.08 | 0.08 | 51 | 1017.5 |
| 20260905110031 | 73 | 256 | 6.0 | 14.0 | 0.00 | 0.08 | 0.08 | 52 | 1017.4 |
| 20260905105027 | 72 | 241 | 9.0 | 18.0 | 0.00 | 0.08 | 0.08 | 56 | 1017.5 |
| 20260905104018 | 71 | 262 | 6.0 | 13.0 | 0.00 | 0.08 | 0.08 | 57 | 1017.6 |
| 20260905103116 | 70 | 231 | 7.0 | 14.0 | 0.00 | 0.08 | 0.08 | 58 | 1017.6 |
| 20260905102106 | 70 | 249 | 6.0 | 13.0 | 0.00 | 0.08 | 0.08 | 60 | 1017.8 |
| 20260905101101 | 70 | 233 | 7.0 | 14.0 | 0.00 | 0.08 | 0.08 | 61 | 1017.8 |
| 20260905100053 | 70 | 273 | 5.0 | 11.0 | 0.00 | 0.08 | 0.08 | 63 | 1017.6 |
| 20260905095041 | 69 | 260 | 4.0 | 9.0 | 0.00 | 0.08 | 0.08 | 66 | 1017.8 |
| 20260905094039 | 68 | 216 | 7.0 | 11.0 | 0.00 | 0.08 | 0.08 | 67 | 1017.8 |
| 20260905093029 | 68 | 230 | 5.0 | 11.0 | 0.00 | 0.08 | 0.08 | 68 | 1017.8 |
| 20260905092026 | 68 | 237 | 4.0 | 11.0 | 0.00 | 0.08 | 0.08 | 70 | 1017.9 |
| 20260905091018 | 67 | 234 | 6.0 | 11.0 | 0.00 | 0.08 | 0.08 | 71 | 1017.9 |
| 20260905090115 | 0 | 0.0 | 0.0 | 0.00 | 0.08 | 0.08 | 1017.8 | ||
| 20260905061026 | 60 | 185 | 1.0 | 4.0 | 0.00 | 0.08 | 0.08 | 93 | 1016.7 |
| 20260905060020 | 60 | 210 | 1.0 | 2.0 | 0.00 | 0.08 | 0.08 | 93 | 1016.7 |
| 20260905055018 | 60 | 0.0 | 0.0 | 0.00 | 0.08 | 0.08 | 94 | 1016.6 | |
| 20260905054114 | 59 | 180 | 0.0 | 2.0 | 0.00 | 0.08 | 0.08 | 94 | 1016.4 |
| 20260905053109 | 60 | 180 | 1.0 | 4.0 | 0.00 | 0.08 | 0.08 | 94 | 1016.3 |
| 20260905052106 | 59 | 0.0 | 2.0 | 0.00 | 0.08 | 0.08 | 93 | 1016.1 | |
| 20260905051104 | 59 | 0.0 | 0.0 | 0.00 | 0.08 | 0.08 | 93 | 1016.1 | |
| 20260905050059 | 59 | 0.0 | 0.0 | 0.00 | 0.08 | 0.08 | 93 | 1016.0 | |
| 20260905045056 | 59 | 0.0 | 2.0 | 0.00 | 0.08 | 0.08 | 92 | 1016.0 | |
| 20260905044050 | 59 | 235 | 1.0 | 2.0 | 0.00 | 0.08 | 0.08 | 92 | 1015.8 |
| 20260905043047 | 59 | 0.0 | 0.0 | 0.00 | 0.08 | 0.08 | 93 | 1015.6 | |
| 20260905042044 | 59 | 0.0 | 0.0 | 0.00 | 0.08 | 0.08 | 93 | 1015.5 | |
| 20260905041043 | 59 | 188 | 1.0 | 2.0 | 0.00 | 0.08 | 0.08 | 92 | 1015.4 |
| 20260905040039 | 59 | 0.0 | 2.0 | 0.00 | 0.08 | 0.08 | 93 | 1015.2 | |
| 20260905035036 | 59 | 180 | 1.0 | 2.0 | 0.00 | 0.08 | 0.08 | 93 | 1015.1 |
| 20260905034031 | 59 | 0.0 | 2.0 | 0.00 | 0.08 | 0.08 | 92 | 1015.1 | |
| 20260905033029 | 59 | 169 | 0.0 | 2.0 | 0.00 | 0.08 | 0.08 | 92 | 1015.0 |
| 20260905032023 | 59 | 223 | 1.0 | 4.0 | 0.00 | 0.08 | 0.08 | 91 | 1015.0 |
| 20260905031021 | 59 | 209 | 2.0 | 4.0 | 0.01 | 0.08 | 0.08 | 91 | 1015.1 |
| 20260905030017 | 59 | 208 | 2.0 | 4.0 | 0.04 | 0.08 | 0.08 | 92 | 1015.0 |
| 20260905025113 | 59 | 197 | 1.0 | 2.0 | 0.06 | 0.08 | 0.08 | 92 | 1015.1 |
| 20260905024109 | 59 | 232 | 2.0 | 4.0 | 0.08 | 0.08 | 0.08 | 91 | 1015.0 |
| 20260905023105 | 59 | 227 | 2.0 | 4.0 | 0.08 | 0.08 | 0.08 | 91 | 1014.7 |
| 20260905022101 | 60 | 240 | 1.0 | 2.0 | 0.08 | 0.08 | 0.08 | 89 | 1014.8 |
| 20260905021058 | 60 | 224 | 2.0 | 4.0 | 0.07 | 0.07 | 0.07 | 89 | 1014.6 |
| 20260905020054 | 60 | 234 | 3.0 | 6.0 | 0.05 | 0.05 | 0.05 | 85 | 1015.0 |
| 20260905015050 | 61 | 246 | 4.0 | 11.0 | 0.02 | 0.02 | 0.02 | 80 | 1015.1 |
| 20260905014044 | 62 | 243 | 2.0 | 4.0 | 0.00 | 0.00 | 0.00 | 81 | 1014.8 |
| 20260905013041 | 63 | 255 | 2.0 | 4.0 | 0.00 | 0.00 | 0.00 | 78 | 1014.4 |
| 20260905012040 | 63 | 232 | 1.0 | 4.0 | 0.00 | 0.00 | 0.00 | 75 | 1014.3 |
| 20260905011036 | 64 | 245 | 1.0 | 2.0 | 0.00 | 0.00 | 0.00 | 73 | 1014.2 |
| 20260905010031 | 64 | 244 | 2.0 | 4.0 | 0.00 | 0.00 | 0.00 | 73 | 1014.1 |
| 20260905005026 | 64 | 245 | 1.0 | 2.0 | 0.00 | 0.00 | 0.00 | 74 | 1013.8 |
| 20260905004022 | 64 | 225 | 1.0 | 4.0 | 0.00 | 0.00 | 0.00 | 73 | 1013.9 |
| 20260905003019 | 64 | 228 | 1.0 | 2.0 | 0.00 | 0.00 | 0.00 | 72 | 1013.7 |
| 20260905002017 | 64 | 228 | 1.0 | 2.0 | 0.00 | 0.00 | 0.00 | 71 | 1013.5 |
| 20260905001113 | 64 | 216 | 2.0 | 4.0 | 0.00 | 0.00 | 0.00 | 71 | 1013.8 |
| 20260905000110 | 65 | 219 | 2.0 | 4.0 | 0.00 | 0.00 | 0.00 | 71 | 1013.4 |
| 20260904235107 | 65 | 211 | 1.0 | 2.0 | 0.00 | 0.00 | 0.00 | 70 | 1013.3 |
| 20260904234103 | 65 | 198 | 1.0 | 2.0 | 0.00 | 0.00 | 0.00 | 71 | 1013.2 |
| 20260904233101 | 66 | 222 | 3.0 | 6.0 | 0.00 | 0.00 | 0.00 | 68 | 1013.2 |
| 20260904232057 | 66 | 229 | 2.0 | 6.0 | 0.00 | 0.00 | 0.00 | 64 | 1012.9 |
| 20260904231051 | 67 | 240 | 2.0 | 4.0 | 0.00 | 0.00 | 0.00 | 63 | 1012.8 |
| 20260904230048 | 67 | 254 | 4.0 | 8.0 | 0.00 | 0.00 | 0.00 | 61 | 1013.1 |
| 20260904225045 | 68 | 211 | 4.0 | 11.0 | 0.00 | 0.00 | 0.00 | 60 | 1013.1 |
| 20260904224043 | 68 | 188 | 6.0 | 17.0 | 0.00 | 0.00 | 0.00 | 59 | 1013.0 |
| 20260904223039 | 69 | 197 | 7.0 | 20.0 | 0.00 | 0.00 | 0.00 | 58 | 1013.1 |
| 20260904222033 | 70 | 178 | 4.0 | 9.0 | 0.00 | 0.00 | 0.00 | 60 | 1012.6 |
| 20260904221029 | 70 | 166 | 7.0 | 20.0 | 0.00 | 0.00 | 0.00 | 63 | 1012.3 |
| 20260904220026 | 72 | 185 | 8.0 | 21.0 | 0.00 | 0.00 | 0.00 | 67 | 1011.7 |
| 20260904215021 | 77 | 231 | 7.0 | 14.0 | 0.00 | 0.00 | 0.00 | 58 | 1011.3 |
| 20260904214016 | 78 | 226 | 8.0 | 16.0 | 0.00 | 0.00 | 0.00 | 56 | 1010.5 |
| 20260904213115 | 78 | 224 | 7.0 | 16.0 | 0.00 | 0.00 | 0.00 | 56 | 1010.4 |
| 20260904212112 | 78 | 248 | 6.0 | 14.0 | 0.00 | 0.00 | 0.00 | 55 | 1010.2 |
| 20260904211110 | 78 | 257 | 6.0 | 13.0 | 0.00 | 0.00 | 0.00 | 55 | 1010.1 |
| 20260904210104 | 77 | 238 | 2.0 | 6.0 | 0.00 | 0.00 | 0.00 | 56 | 1010.0 |
| 20260904205100 | 77 | 243 | 2.0 | 4.0 | 0.00 | 0.00 | 0.00 | 56 | 1009.9 |
| 20260904204054 | 77 | 209 | 2.0 | 4.0 | 0.00 | 0.00 | 0.00 | 55 | 1009.8 |
| 20260904203052 | 77 | 244 | 1.0 | 4.0 | 0.00 | 0.00 | 0.00 | 55 | 1009.8 |
| 20260904202050 | 77 | 233 | 1.0 | 4.0 | 0.00 | 0.00 | 0.00 | 55 | 1009.7 |
| 20260904201045 | 77 | 222 | 2.0 | 4.0 | 0.00 | 0.00 | 0.00 | 54 | 1009.5 |
| 20260904200042 | 77 | 232 | 1.0 | 2.0 | 0.00 | 0.00 | 0.00 | 55 | 1009.6 |
| 20260904195039 | 78 | 222 | 1.0 | 4.0 | 0.00 | 0.00 | 0.00 | 54 | 1009.6 |
| 20260904194036 | 78 | 245 | 1.0 | 2.0 | 0.00 | 0.00 | 0.00 | 53 | 1009.5 |
| 20260904193033 | 79 | 230 | 2.0 | 7.0 | 0.00 | 0.00 | 0.00 | 52 | 1009.5 |
| 20260904192028 | 79 | 246 | 1.0 | 4.0 | 0.00 | 0.00 | 0.00 | 52 | 1009.3 |
| 20260904191024 | 79 | 251 | 2.0 | 4.0 | 0.00 | 0.00 | 0.00 | 51 | 1009.3 |
| 20260904190021 | 80 | 239 | 2.0 | 4.0 | 0.00 | 0.00 | 0.00 | 51 | 1009.3 |
| 20260904185016 | 80 | 217 | 2.0 | 4.0 | 0.00 | 0.00 | 0.00 | 51 | 1009.2 |
| 20260904184114 | 80 | 230 | 2.0 | 4.0 | 0.00 | 0.00 | 0.00 | 50 | 1009.1 |
| 20260904183110 | 81 | 231 | 3.0 | 6.0 | 0.00 | 0.00 | 0.00 | 50 | 1009.0 |
| 20260904182105 | 81 | 238 | 4.0 | 7.0 | 0.00 | 0.00 | 0.00 | 48 | 1008.8 |
| 20260904181101 | 82 | 218 | 3.0 | 8.0 | 0.00 | 0.00 | 0.00 | 48 | 1008.8 |
| 20260904180058 | 82 | 236 | 5.0 | 11.0 | 0.00 | 0.00 | 0.00 | 47 | 1008.7 |
| 20260904175052 | 82 | 242 | 5.0 | 9.0 | 0.00 | 0.00 | 0.00 | 47 | 1008.6 |
| 20260904174048 | 83 | 244 | 5.0 | 11.0 | 0.00 | 0.00 | 0.00 | 47 | 1008.5 |
| 20260904173045 | 83 | 237 | 5.0 | 9.0 | 0.00 | 0.00 | 0.00 | 46 | 1008.7 |
| 20260904172042 | 83 | 244 | 5.0 | 11.0 | 0.00 | 0.00 | 0.00 | 46 | 1008.5 |
| 20260904171039 | 83 | 240 | 4.0 | 8.0 | 0.00 | 0.00 | 0.00 | 46 | 1008.6 |
| 20260904170036 | 83 | 234 | 6.0 | 11.0 | 0.00 | 0.00 | 0.00 | 45 | 1008.7 |
| 20260904165032 | 83 | 250 | 7.0 | 15.0 | 0.00 | 0.00 | 0.00 | 45 | 1008.6 |
| 20260904164026 | 84 | 214 | 7.0 | 14.0 | 0.00 | 0.00 | 0.00 | 45 | 1008.7 |
| 20260904163023 | 84 | 210 | 10.0 | 17.0 | 0.00 | 0.00 | 0.00 | 46 | 1008.7 |
| 20260904162020 | 84 | 262 | 6.0 | 13.0 | 0.00 | 0.00 | 0.00 | 45 | 1008.7 |